Location: Laura�t
(43.9341°N, 0.2497°E)
Time: 22:47:34
(UTC+00:00)

Cosmos 1844 Rocket - Pass Details

Date: 03 March 2021
Orbit: 826 x 843 km, 71.0° (Epoch: 17 April)

Event Time Altitude Azimuth Distance (km) Brightness Sun altitude
Rises 20:05:55 0° 328° (NNW) 3,372 6.5 -25.0°
Reaches altitude 10° 20:08:29 10° 321° (NW) 2,435 5.8 -25.5°
Maximum altitude 20:13:38 39° 254° (WSW) 1,214 3.8 -26.3°
Enters shadow 20:17:37 16° 192° (SSW) 2,035 4.6 -27.0°
